Temp
61 61 61 61 61 61 61 61 61 60 60 60 60 60 61 61 61 61 61 61 61 61 62 62 62 63 86 94 100 93 79 81 95 99 102 101 99 99 94 99 100 97 100 102 105 105 103
61 61 61 61 61 60 60 60 60 60 60 60 60 60 60 60 60 60 61 61 61 61 61 62 63 62 89 90 108 99 101 95 102 103 103 104 101 104 98 97 97 100 99 100 104 102 102
61 61 61 61 60 60 60 60 60 60 60 59 59 59 59 59 60 60 60 60 60 61 61 63 64 81 94 96 110 107 104 101 106 106 102 107 107 101 102 97 103 101 94 99 101 102 100
61 60 60 60 60 60 60 60 60 59 59 59 59 59 59 59 59 59 59 59 60 61 62 65 66 89 92 109 113 106 107 105 108 110 108 109 108 102 100 102 99 94 95 88 99 99 102
60 60 60 60 60 59 59 59 59 59 59 59 58 58 58 58 58 58 58 58 60 63 66 69 84 94 92 91 101 108 109 104 106 108 108 107 104 99 99 92 88 91 84 88 92 101 97
60 60 60 60 60 59 59 59 59 59 59 58 58 58 58 58 58 58 57 59 71 67 73 90 95 90 99 97 106 108 111 108 104 103 100 97 97 92 94 90 79 84 86 90 88 95 97
60 60 60 60 59 59 59 59 58 58 58 58 58 57 57 57 57 57 66 93 90 85 91 92 96 95 99 104 106 103 109 104 103 99 89 95 89 85 90 93 93 91 87 86 91 97 93
60 60 59 59 59 59 58 58 58 58 58 58 57 57 57 57 57 57 69 90 85 86 80 96 97 99 103 103 93 101 109 96 94 88 94 91 85 93 96 93 90 88 85 85 91 95 94
60 60 59 59 59 58 58 58 58 58 57 57 57 57 56 56 56 69 88 88 94 94 81 90 98 97 99 103 94 97 103 99 93 88 91 86 92 95 92 89 86 87 85 85 86 92 95
60 59 59 59 59 58 58 58 57 57 57 57 57 56 56 54 65 87 88 91 96 94 74 83 92 97 100 102 92 104 107 99 94 89 91 91 96 92 90 86 89 83 92 91 88 85 79
60 60 59 59 59 58 58 57 57 57 57 57 57 56 55 53 72 83 89 95 96 90 59 88 93 106 103 93 96 98 107 101 89 91 91 87 90 88 85 88 92 86 94 89 88 85 84
60 60 59 59 58 58 57 57 57 57 56 56 56 56 55 77 81 87 92 93 90 70 59 82 92 89 90 93 95 98 99 103 100 92 93 91 99 95 92 94 93 95 90 88 88 86 75
60 60 59 59 58 58 57 57 57 56 56 56 55 55 56 73 82 92 91 85 69 62 83 79 84 89 88 87 89 92 89 88 84 78 79 87 89 95 95 88 93 90 84 73 72 74 73
60 59 59 59 58 57 57 57 56 56 56 55 54 54 66 78 89 88 86 75 59 73 76 88 85 88 83 89 89 90 87 84 90 88 83 78 75 88 94 89 85 86 85 75 65 71 76
59 59 59 59 58 57 57 56 56 56 55 54 53 84 85 88 87 85 77 64 66 74 83 80 83 78 80 86 86 87 86 85 89 91 79 78 79 95 95 96 93 85 81 91 80 82 77
59 59 59 59 58 57 57 56 56 56 55 54 66 78 84 89 86 81 72 61 74 84 83 81 72 79 75 81 81 82 83 89 88 94 96 86 76 91 93 95 94 90 93 79 81 65 64
59 59 58 58 58 58 57 56 56 55 54 54 67 76 83 89 85 76 66 71 77 85 83 78 76 77 79 78 81 81 83 89 92 92 95 91 84 83 90 85 84 85 83 85 86 82 71
59 58 58 58 58 57 57 56 55 54 53 62 75 71 85 87 71 76 72 76 70 81 86 81 81 79 77 80 77 79 81 85 91 93 85 91 86 77 83 92 94 92 86 85 75 71 79
59 58 57 57 57 57 57 56 55 54 53 65 70 76 86 83 67 73 78 77 80 78 79 79 78 81 83 77 72 79 83 89 89 89 85 90 81 73 76 86 91 85 88 89 87 84 74
59 58 57 57 57 57 57 57 56 55 54 61 69 69 78 77 80 72 72 73 73 81 79 81 80 82 79 76 81 75 80 87 88 90 72 83 83 77 73 77 85 80 84 87 85 77 77
58 58 57 57 57 57 57 57 56 55 54 61 72 72 74 70 71 75 74 72 70 72 80 80 76 77 76 71 75 76 81 84 88 72 84 86 74 81 83 84 84 84 84 85 83 83 78
58 58 57 57 57 57 57 57 56 55 54 65 68 70 75 72 73 70 65 68 69 74 76 74 74 77 80 74 75 74 80 81 81 87 84 87 74 80 78 85 84 82 86 86 86 86 85
58 58 57 57 57 57 57 57 56 54 54 71 77 76 70 65 73 71 72 68 70 74 77 80 80 79 77 80 85 87 90 88 86 82 80 79 77 74 70 80 81 74 81 84 86 87 86
58 58 57 57 57 57 57 57 56 55 53 70 72 69 66 66 71 69 71 73 73 75 72 78 81 77 81 88 88 88 90 87 86 85 86 76 74 75 71 67 51 77 87 89 84 84 86
57 57 57 57 57 57 57 57 57 56 54 65 73 69 67 64 74 73 71 68 75 77 76 78 80 82 87 82 75 70 74 75 79 84 81 84 76 71 67 69 75 77 80 82 81 77 81
57 57 57 57 57 57 57 57 57 56 55 62 73 73 67 65 70 72 70 72 70 71 76 78 85 87 86 80 75 63 63 69 69 74 82 81 77 72 70 63 61 68 77 82 82 71 77
57 57 56 57 57 57 57 57 57 56 55 61 71 70 67 63 73 72 69 68 75 74 73 75 75 79 84 75 67 67 63 70 66 66 68 72 70 68 68 65 72 76 78 81 67 66 75
57 56 56 56 56 57 57 57 57 57 57 60 72 74 66 65 71 74 75 70 73 75 69 65 74 77 75 66 69 67 63 62 69 70 67 68 66 68 69 64 60 77 78 68 66 73 74
56 56 56 56 56 57 57 57 57 57 57 56 68 75 74 63 68 75 76 78 77 76 72 76 72 69 70 68 67 73 68 73 67 63 72 62 70 62 64 61 72 77 72 74 76 74 74
MSLP
1025.08 1024.73 1024.49 1024.17 1023.82 1023.49 1023.05 1022.64 1022.22 1021.80 1021.30 1020.79 1020.24 1019.68 1019.04 1018.39 1017.74 1017.06 1016.37 1015.76 1015.14 1014.58 1014.03 1013.58 1013.11 1012.60 1011.27 1008.80 1005.86 1006.89 1007.55 1008.02 1007.95 1007.25 1005.86 1005.07 1004.39 1003.64 1002.78 1001.79 1001.22 1000.95 1000.16 999.93 999.28 998.73 999.02
1025.21 1025.01 1024.80 1024.44 1024.04 1023.65 1023.27 1022.91 1022.43 1021.95 1021.41 1020.87 1020.29 1019.72 1019.10 1018.37 1017.66 1016.94 1016.25 1015.61 1014.89 1014.17 1013.63 1013.36 1012.92 1012.80 1011.14 1007.20 1005.55 1006.73 1006.81 1007.68 1006.77 1006.26 1005.38 1004.84 1004.07 1003.49 1003.06 1002.35 1001.67 1000.94 1000.77 1000.13 999.26 998.61 998.72
1025.37 1025.09 1024.85 1024.49 1024.11 1023.81 1023.51 1023.15 1022.66 1022.13 1021.61 1020.98 1020.34 1019.71 1019.07 1018.30 1017.56 1016.79 1015.92 1015.28 1014.48 1013.80 1013.19 1012.88 1012.48 1011.96 1009.00 1006.05 1005.15 1005.92 1006.40 1006.44 1006.02 1005.42 1004.71 1004.38 1004.19 1003.83 1002.95 1001.94 1001.60 1001.09 1000.73 999.87 998.93 998.34 998.45
1025.63 1025.39 1025.08 1024.68 1024.32 1024.00 1023.61 1023.19 1022.86 1022.31 1021.77 1021.16 1020.50 1019.78 1019.02 1018.19 1017.33 1016.42 1015.42 1014.60 1013.86 1013.27 1012.66 1012.21 1012.00 1010.84 1007.12 1005.00 1004.97 1005.43 1005.57 1005.65 1005.44 1004.91 1004.59 1004.21 1004.33 1003.87 1003.13 1002.46 1001.71 1001.14 1000.31 999.15 997.98 998.29 998.38
1025.74 1025.49 1025.19 1024.89 1024.62 1024.22 1023.87 1023.35 1022.93 1022.39 1021.90 1021.26 1020.54 1019.69 1018.97 1018.15 1017.22 1016.14 1014.97 1013.77 1013.06 1012.49 1012.22 1011.85 1011.08 1009.02 1005.79 1005.82 1005.06 1004.73 1004.71 1004.43 1004.59 1004.64 1004.51 1004.61 1004.38 1003.46 1002.72 1002.09 1001.35 1000.52 999.50 998.62 997.80 997.96 998.51
1025.83 1025.62 1025.36 1025.02 1024.68 1024.36 1023.94 1023.48 1023.05 1022.56 1022.01 1021.40 1020.79 1019.79 1018.95 1018.13 1017.13 1016.01 1014.57 1012.50 1011.63 1011.97 1011.59 1010.43 1009.15 1007.84 1004.77 1003.85 1003.32 1003.63 1004.13 1004.15 1003.60 1003.98 1004.06 1004.29 1003.69 1002.73 1001.86 1001.27 999.99 999.21 998.62 998.09 997.74 998.03 998.09
1025.68 1025.40 1025.18 1024.89 1024.60 1024.46 1024.08 1023.70 1023.18 1022.66 1022.02 1021.49 1020.82 1019.81 1018.92 1018.05 1016.99 1015.90 1014.42 1010.84 1010.94 1010.57 1009.06 1006.83 1005.14 1004.43 1003.25 1003.43 1003.72 1003.44 1003.23 1003.64 1003.50 1003.22 1002.92 1002.83 1002.28 1001.15 1000.51 1000.02 999.96 999.56 999.28 998.67 998.13 998.35 998.44
1025.76 1025.54 1025.27 1025.00 1024.62 1024.27 1023.98 1023.63 1023.15 1022.64 1022.07 1021.36 1020.74 1019.88 1018.90 1017.81 1016.70 1015.63 1014.90 1011.19 1011.34 1011.29 1008.50 1005.84 1004.68 1003.82 1003.10 1003.18 1002.90 1002.41 1002.58 1002.87 1002.74 1002.20 1001.99 1001.80 1000.73 1000.59 1000.28 1000.22 1000.32 1000.31 999.83 999.21 998.90 998.60 998.46
1025.64 1025.45 1025.22 1024.98 1024.63 1024.29 1023.85 1023.52 1022.86 1022.40 1021.81 1021.23 1020.64 1019.78 1018.90 1017.40 1016.19 1014.91 1012.77 1011.26 1011.31 1010.68 1008.42 1004.60 1003.18 1002.53 1002.18 1002.58 1002.02 1001.54 1001.85 1001.80 1001.26 1001.34 1000.82 1000.34 999.82 999.80 999.98 1000.31 1000.42 1000.03 999.63 999.09 998.68 998.40 997.95
1025.45 1025.29 1025.08 1024.77 1024.45 1024.21 1023.74 1023.45 1022.88 1022.36 1021.85 1021.22 1020.65 1019.93 1019.06 1017.50 1015.99 1013.58 1011.45 1011.65 1011.08 1010.64 1007.62 1002.78 1001.22 1000.81 1001.16 1000.99 1000.82 1001.27 1000.74 1001.17 1000.73 1000.26 1000.02 999.65 999.63 999.52 999.74 1000.09 1000.02 999.16 999.06 998.90 998.69 998.65 997.65
1025.22 1025.06 1024.91 1024.73 1024.42 1024.01 1023.71 1023.26 1022.74 1022.25 1021.65 1020.94 1020.40 1019.84 1019.05 1018.97 1016.78 1013.12 1011.96 1011.71 1011.24 1010.36 1005.59 1000.83 999.48 999.42 999.67 1000.36 1000.00 999.48 1000.12 1000.04 1000.01 999.64 999.87 999.01 999.11 999.26 999.47 999.37 999.49 999.22 998.85 998.98 998.90 998.48 997.78
1024.83 1024.75 1024.63 1024.50 1024.25 1023.94 1023.47 1023.05 1022.64 1022.19 1021.37 1020.83 1020.13 1019.65 1019.28 1015.86 1015.27 1013.29 1012.43 1011.78 1010.99 1008.66 1003.82 1000.71 999.55 999.42 999.61 999.45 999.03 998.79 998.72 999.60 999.61 999.62 999.14 998.77 998.68 998.60 998.93 998.90 999.10 999.19 999.06 999.23 998.71 997.91 996.75
1024.41 1024.36 1024.28 1024.15 1023.92 1023.66 1023.37 1022.99 1022.50 1021.84 1021.24 1020.42 1019.48 1018.87 1019.19 1017.31 1013.35 1012.61 1012.54 1011.28 1009.13 1006.02 1002.82 1000.92 999.52 999.17 998.76 998.50 998.42 998.36 998.57 998.76 998.81 998.82 998.56 998.60 998.21 998.41 998.83 998.66 998.67 999.11 998.86 998.20 997.38 996.49 995.55
1023.90 1023.95 1023.89 1023.85 1023.77 1023.55 1023.21 1022.76 1022.33 1021.78 1021.00 1019.99 1018.91 1017.70 1015.78 1015.11 1013.39 1013.26 1012.14 1010.52 1007.07 1004.04 1002.53 1000.50 1000.03 998.61 997.95 997.60 997.32 997.49 997.83 997.73 998.00 998.01 997.64 997.41 997.25 997.61 998.04 998.25 998.11 998.19 998.26 997.41 996.27 995.33 994.67
1023.37 1023.43 1023.44 1023.46 1023.44 1023.27 1023.00 1022.68 1022.22 1021.48 1020.63 1019.74 1018.10 1014.43 1013.11 1012.71 1013.36 1013.29 1011.71 1008.56 1005.78 1004.12 1002.19 1001.27 1000.45 999.81 998.84 998.07 997.39 997.01 997.04 996.93 996.95 997.15 997.24 996.77 996.34 996.27 996.50 997.15 997.91 997.77 997.28 997.43 996.78 996.24 995.63
1022.83 1022.93 1023.05 1023.05 1023.09 1023.05 1022.85 1022.53 1022.03 1021.35 1020.43 1019.70 1017.85 1014.22 1011.82 1012.21 1013.04 1012.49 1010.76 1007.65 1005.35 1004.11 1003.02 1002.69 1001.81 1000.70 998.92 997.96 997.45 997.54 996.55 996.63 996.30 996.24 996.40 996.61 996.40 995.57 995.83 996.96 996.98 997.08 997.15 997.18 996.90 996.41 995.54
1022.33 1022.47 1022.64 1022.75 1022.80 1022.83 1022.64 1022.44 1022.04 1021.37 1020.38 1019.10 1017.47 1012.97 1011.94 1012.24 1012.54 1011.20 1008.68 1006.72 1005.60 1004.44 1004.11 1003.91 1002.54 1001.09 999.75 998.65 997.77 997.21 996.36 996.21 995.99 995.91 995.88 996.31 996.20 995.79 995.68 996.24 996.12 996.84 996.89 996.67 996.20 995.96 995.25
1021.82 1021.94 1022.15 1022.38 1022.47 1022.59 1022.47 1022.39 1022.12 1021.57 1020.45 1017.88 1015.89 1012.13 1011.85 1012.03 1011.07 1008.96 1007.40 1006.37 1005.54 1004.50 1003.92 1003.92 1003.56 1002.40 1001.29 1000.11 999.55 998.46 997.00 996.21 996.70 996.59 996.26 996.50 996.23 996.06 995.32 995.77 996.24 995.68 995.73 996.36 996.25 996.37 995.95
1021.34 1021.43 1021.66 1021.95 1022.18 1022.34 1022.33 1022.28 1022.14 1021.83 1021.50 1019.83 1015.60 1012.26 1011.21 1011.53 1009.10 1007.15 1006.26 1006.02 1005.25 1004.93 1004.44 1003.88 1003.27 1003.09 1002.47 1001.75 1001.09 999.86 998.10 997.83 998.08 997.69 997.32 997.02 996.58 996.21 995.98 995.52 995.24 995.58 995.56 995.38 995.80 996.25 995.77
1020.93 1020.97 1021.27 1021.62 1021.90 1022.06 1022.14 1022.17 1022.05 1021.84 1021.59 1020.85 1016.23 1011.47 1009.99 1010.61 1009.16 1008.19 1006.71 1005.75 1005.40 1005.07 1004.86 1004.27 1003.49 1003.02 1002.48 1002.05 1001.48 1000.61 999.11 998.33 998.82 998.13 998.52 998.01 997.04 996.65 995.42 995.05 994.70 994.97 995.63 995.55 995.67 995.64 995.77
1020.53 1020.64 1020.91 1021.26 1021.55 1021.83 1021.92 1022.01 1021.96 1021.74 1021.47 1020.88 1015.54 1011.72 1010.71 1009.00 1008.61 1007.81 1007.32 1006.83 1005.81 1004.69 1004.41 1004.27 1003.57 1003.23 1002.72 1002.12 1001.56 1000.57 1000.04 999.01 998.93 999.46 999.12 998.55 997.81 997.01 996.37 995.68 995.93 994.66 994.45 995.05 995.12 995.66 995.66
1020.18 1020.30 1020.57 1020.90 1021.21 1021.54 1021.61 1021.80 1021.84 1021.50 1021.02 1019.43 1015.26 1013.04 1011.59 1010.40 1009.43 1008.61 1007.81 1007.39 1006.45 1005.05 1004.24 1003.47 1003.21 1002.90 1002.01 1001.87 1001.56 1000.75 1000.03 999.46 998.67 998.58 998.89 998.61 998.28 997.49 996.74 995.80 995.73 995.00 994.60 994.57 994.70 995.18 995.90
1019.76 1019.89 1020.13 1020.53 1020.90 1021.27 1021.40 1021.57 1021.65 1021.43 1021.02 1017.88 1015.67 1015.01 1013.85 1010.71 1008.82 1008.02 1007.19 1007.36 1006.48 1005.79 1004.80 1003.85 1002.88 1002.38 1001.87 1001.47 1001.20 1000.90 1000.14 999.91 999.35 999.34 998.90 999.27 998.72 998.28 997.30 996.52 995.90 995.52 994.95 994.81 995.00 995.35 995.98
1019.50 1019.58 1019.76 1020.16 1020.59 1021.03 1021.13 1021.36 1021.52 1021.35 1021.12 1019.08 1017.40 1016.66 1014.17 1010.86 1008.79 1008.09 1007.75 1007.61 1006.71 1005.60 1005.09 1003.96 1003.55 1002.96 1002.73 1002.65 1002.27 1001.53 1000.36 1000.36 1000.03 1000.01 1000.25 1000.02 999.89 999.10 997.88 998.30 998.87 996.31 996.07 995.56 996.00 997.06 997.46
1019.18 1019.23 1019.47 1019.82 1020.25 1020.73 1020.91 1021.13 1021.33 1021.31 1021.15 1019.80 1017.93 1017.05 1014.81 1012.12 1009.50 1008.53 1008.22 1008.39 1006.94 1005.60 1005.12 1004.06 1003.74 1004.02 1003.42 1002.77 1002.08 1001.68 1001.19 1000.62 1000.44 1000.15 1000.51 1000.40 1000.56 999.79 999.27 998.12 997.40 997.57 997.88 997.58 997.47 999.07 1000.29
1018.70 1018.74 1019.01 1019.40 1019.85 1020.39 1020.72 1020.88 1021.09 1021.17 1021.15 1020.15 1017.86 1017.66 1016.59 1013.75 1010.57 1010.21 1009.45 1008.40 1007.36 1006.15 1004.93 1004.34 1004.00 1003.93 1003.12 1001.99 1001.65 1001.38 1000.75 1000.53 1000.62 1000.57 1001.15 1001.02 1001.41 1001.34 1000.30 999.57 998.70 999.88 1000.45 1000.90 999.95 1000.83 1002.86
1018.20 1018.32 1018.60 1019.02 1019.54 1019.98 1020.41 1020.69 1020.90 1021.04 1021.08 1020.40 1018.06 1018.28 1017.16 1014.59 1011.80 1011.11 1009.81 1009.24 1008.42 1007.48 1005.96 1005.27 1005.37 1004.17 1003.53 1002.10 1001.76 1001.44 1001.51 1002.24 1000.50 1000.39 1000.84 1000.98 1001.54 1001.08 1001.01 1000.90 1000.41 1001.75 1002.21 1002.16 1001.75 1004.03 1004.50
1017.80 1017.90 1018.20 1018.64 1019.23 1019.70 1020.10 1020.40 1020.68 1020.89 1020.94 1020.50 1017.65 1017.90 1017.61 1015.30 1012.62 1011.76 1011.22 1010.51 1009.62 1008.29 1007.46 1008.35 1006.19 1004.71 1004.43 1004.13 1002.98 1002.91 1003.48 1004.35 1002.22 1002.37 1002.56 1001.66 1001.83 1001.45 1001.72 1001.81 1002.24 1003.31 1002.92 1003.44 1005.46 1005.51 1005.78
1017.49 1017.58 1017.97 1018.36 1018.91 1019.39 1019.84 1020.19 1020.46 1020.73 1020.84 1020.84 1018.11 1017.59 1017.35 1016.66 1013.40 1012.45 1011.85 1011.20 1010.55 1010.16 1009.80 1007.93 1006.96 1006.75 1006.95 1006.22 1005.44 1003.72 1003.50 1003.34 1003.45 1002.91 1003.59 1003.70 1003.45 1003.80 1003.88 1004.26 1004.72 1004.70 1005.48 1005.99 1006.14 1006.19 1006.56
Wind_Speed
15 16 16 16 16 16 17 17 18 18 19 19 20 21 22 23 23 23 22 22 22 21 20 19 17 16 12 10 9 9 10 15 19 16 14 14 14 13 17 15 10 13 14 14 15 9 8
16 16 15 16 16 16 17 18 18 19 19 19 20 21 21 22 22 23 23 22 22 22 20 18 15 11 13 15 8 12 14 18 16 16 15 14 12 11 14 17 15 16 15 19 19 3 3
15 15 16 16 17 17 17 17 18 19 19 20 20 20 21 23 23 24 24 23 23 21 21 18 10 8 12 15 1 12 15 18 16 15 13 13 13 13 16 15 16 13 17 18 16 5 9
14 14 15 16 16 17 17 18 18 19 19 20 20 21 22 23 24 25 26 25 24 22 18 13 7 11 12 2 7 11 16 16 16 11 13 6 8 14 18 15 21 18 19 17 18 3 9
13 14 15 15 16 16 16 17 18 19 20 20 21 22 23 23 25 26 28 28 25 18 10 7 8 11 17 4 12 15 17 16 15 13 12 7 12 15 16 15 17 18 16 17 21 11 6
12 12 13 14 15 15 16 17 18 19 19 19 21 22 23 25 25 26 29 30 6 7 8 10 10 10 18 12 12 15 20 18 14 15 14 14 13 15 15 14 15 16 19 18 13 9 7
12 13 14 15 15 16 16 17 18 19 19 19 20 22 23 26 27 27 19 10 9 9 13 16 6 13 3 6 4 11 13 17 16 16 17 20 16 16 17 16 13 15 14 17 15 12 13
10 11 12 13 15 16 16 17 18 19 19 19 20 22 23 26 27 27 12 10 7 8 13 17 20 21 19 5 7 15 18 18 18 19 19 18 17 16 16 8 10 13 16 16 15 15 15
9 10 11 12 13 14 16 17 17 18 19 20 21 22 24 29 28 13 10 6 7 10 10 19 22 23 21 21 21 18 18 21 18 20 18 18 18 5 10 10 15 16 17 15 15 13 12
9 9 11 11 13 13 15 16 17 18 19 19 19 20 22 30 9 12 6 4 8 6 9 19 23 21 20 17 23 23 21 21 22 21 18 18 16 18 12 13 17 17 16 16 11 11 13
9 8 9 10 12 13 14 16 18 18 19 20 20 20 20 12 13 9 9 10 11 6 10 10 25 8 18 22 18 24 23 20 25 20 16 17 15 12 15 17 18 17 14 8 12 14 16
10 9 9 9 10 12 13 15 16 18 19 21 21 20 19 5 11 12 10 11 9 10 12 12 7 13 18 20 24 5 18 25 19 24 20 21 19 11 14 13 15 13 9 14 17 15 14
11 10 9 10 10 12 12 14 16 18 21 23 24 23 13 10 7 9 10 8 10 13 13 24 13 15 22 24 26 23 19 21 21 19 23 25 21 17 13 14 11 14 14 12 13 13 12
13 11 10 9 9 10 11 14 16 18 20 23 27 29 8 10 7 8 9 10 18 14 23 9 10 15 19 22 21 30 26 22 26 27 18 21 23 22 19 20 17 17 17 14 13 11 9
13 12 10 9 9 9 10 13 15 19 22 24 32 9 9 7 5 7 9 15 17 15 20 9 18 13 19 22 11 18 21 26 27 26 25 22 23 22 27 23 20 19 18 17 20 17 11
14 13 11 10 8 8 10 12 15 19 22 23 11 11 9 8 6 7 10 17 20 23 6 9 15 19 18 21 17 21 15 20 23 23 24 22 26 19 12 10 19 23 16 13 12 16 16
14 13 12 10 8 8 9 10 14 18 23 25 8 7 8 5 7 9 12 16 20 26 5 13 18 18 17 15 9 14 19 20 11 21 19 21 21 18 10 13 17 12 16 15 17 15 13
14 14 13 11 8 8 7 8 12 15 23 13 7 7 6 6 8 9 13 18 17 16 12 13 15 16 17 15 10 19 16 8 3 13 13 18 14 13 17 19 19 21 19 20 14 16 13
13 14 13 11 8 8 7 6 9 11 11 9 7 10 7 6 9 10 11 14 13 13 16 18 16 18 17 15 13 17 18 12 3 11 6 13 13 13 17 17 13 10 17 10 19 15 15
10 13 13 10 9 9 6 5 8 9 8 7 7 5 7 7 11 10 14 8 13 16 14 19 18 17 17 16 14 12 13 3 0 7 11 6 10 14 15 18 13 23 19 17 16 12 13
10 12 13 12 11 9 6 5 7 9 8 6 7 3 7 4 6 8 8 14 13 12 10 14 11 19 18 17 17 16 15 18 9 6 6 8 12 13 18 17 16 20 22 22 21 17 16
9 12 13 13 11 9 7 5 6 10 13 7 7 6 9 12 11 9 6 7 17 13 14 13 14 16 16 19 18 16 17 13 13 13 11 7 9 11 12 16 12 17 11 12 16 19 17
10 12 14 13 12 11 8 6 4 8 9 5 5 9 8 10 10 9 4 8 11 13 15 14 18 9 13 8 11 17 17 12 4 9 3 6 8 7 15 17 15 15 14 14 14 11 8
10 11 15 15 13 12 10 7 4 4 8 8 6 8 8 12 11 6 3 11 13 13 9 15 6 10 5 9 10 17 12 14 9 7 9 7 6 10 12 10 18 9 10 6 4 12 8
10 11 14 16 14 13 11 8 6 3 6 8 5 6 8 11 12 9 3 9 14 13 10 8 5 7 8 8 10 12 10 12 13 14 7 8 8 10 11 14 9 12 6 2 4 14 12
10 11 14 16 15 14 12 10 7 5 5 7 6 4 6 8 6 11 12 9 11 9 10 8 5 7 13 10 11 12 12 12 13 10 8 9 5 9 11 13 18 13 10 10 1 6 10
10 11 14 16 15 14 13 11 9 6 5 7 6 2 6 10 15 7 10 11 10 11 7 4 11 9 9 12 2 5 0 16 11 12 10 11 9 13 11 13 9 10 4 5 9 7 8
9 11 14 16 16 15 14 12 10 7 5 7 4 1 7 8 15 17 15 13 11 6 6 9 10 3 3 11 4 7 8 6 5 5 6 6 6 8 8 12 11 13 2 6 5 6 7
9 11 14 16 16 15 14 12 11 8 6 6 7 1 4 8 14 19 17 19 17 13 10 8 4 4 4 8 7 6 4 2 5 5 2 4 4 5 6 6 4 11 12 8 6 6 7
Wind_Direction
28 25 20 19 17 13 10 7 4 1 358 355 351 347 344 340 334 330 328 324 321 318 316 313 314 318 305 244 262 109 143 165 182 210 224 221 239 255 268 275 299 269 281 308 302 308 348
22 21 18 16 14 12 8 3 0 357 355 353 349 344 339 335 332 327 324 320 317 314 310 307 304 308 249 270 93 133 149 168 191 209 215 232 251 280 294 281 280 295 306 294 284 324 234
17 15 13 12 11 8 6 2 359 356 352 349 346 341 336 333 329 324 320 316 312 309 304 300 291 262 268 261 1 162 171 187 206 217 230 230 262 268 269 274 265 295 275 277 274 238 289
10 10 8 8 7 4 0 359 356 354 350 347 343 338 334 331 327 323 318 314 307 303 295 289 258 240 269 113 206 183 187 199 218 226 255 296 259 267 272 283 274 267 269 269 266 156 261
4 3 4 4 2 1 358 357 354 352 349 345 339 336 332 328 324 321 315 307 300 290 270 266 232 230 269 119 209 209 205 207 206 224 226 251 256 254 252 240 256 248 257 256 262 160 293
358 360 358 359 358 355 355 354 351 348 347 342 337 335 331 326 322 319 316 294 276 288 220 236 258 270 231 231 202 218 205 222 219 214 216 221 235 243 231 244 249 245 239 237 233 268 230
352 353 352 354 356 352 353 351 347 346 345 339 337 334 330 324 320 318 323 305 225 192 223 249 212 234 131 225 193 218 200 201 229 229 221 210 234 238 243 248 262 293 299 289 304 303 286
339 343 347 348 349 349 347 345 344 342 339 339 336 333 329 322 317 314 284 298 35 335 295 270 258 264 263 201 266 222 182 202 208 226 222 240 229 253 268 283 297 267 260 265 268 266 268
322 332 337 339 342 343 345 340 341 338 337 337 334 333 329 321 317 289 312 324 333 323 261 267 244 239 232 228 239 241 197 216 214 224 235 236 244 234 244 229 246 252 259 269 277 292 262
304 317 325 333 337 337 341 335 336 334 332 331 331 329 331 324 286 335 294 15 310 330 271 257 217 230 235 233 231 231 235 218 228 243 241 250 231 259 219 242 255 260 243 248 276 266 259
281 291 306 318 327 331 331 332 331 329 328 328 327 327 326 326 315 291 7 315 316 248 265 233 217 171 209 208 225 218 217 218 235 229 240 249 226 243 254 258 249 256 281 263 263 271 266
265 276 290 306 316 321 329 330 326 324 327 322 320 322 329 284 238 261 295 307 266 232 243 257 184 197 220 207 230 227 202 217 226 239 248 245 264 235 247 251 243 252 254 254 249 251 251
254 262 279 294 308 317 320 322 324 328 324 319 317 311 298 302 272 347 306 264 226 242 230 258 242 223 212 222 219 222 195 210 221 224 235 245 230 234 242 259 220 224 241 244 231 224 238
243 246 255 272 289 300 313 322 323 322 321 319 314 306 239 235 270 257 266 230 244 242 245 287 317 280 232 221 229 214 226 225 213 229 235 228 236 225 219 227 248 213 242 256 261 251 281
239 239 247 259 276 295 311 318 321 325 325 322 310 279 241 227 217 242 244 227 231 256 279 289 290 251 262 239 258 228 237 230 236 217 236 251 248 237 220 212 226 243 238 240 268 280 276
236 235 239 245 263 287 304 318 324 327 326 326 312 293 257 111 207 225 237 250 262 260 316 312 266 268 260 253 198 235 227 234 240 236 236 236 252 252 183 210 237 233 241 230 246 260 278
236 231 233 236 248 279 300 321 328 330 326 317 268 271 91 201 204 224 237 241 240 260 271 268 278 283 283 291 318 267 235 239 226 235 230 222 241 235 169 195 223 200 241 251 265 235 253
234 225 225 228 236 265 295 321 329 337 331 307 287 264 112 191 225 229 240 243 264 288 261 229 269 289 301 314 307 290 278 302 72 275 228 237 235 237 219 200 220 240 211 221 242 242 273
242 221 215 223 227 249 277 314 327 336 1 318 282 292 133 233 254 242 222 258 274 273 264 259 244 251 261 276 281 267 288 76 23 248 252 231 235 243 242 243 196 243 257 233 221 246 271
249 217 210 212 219 232 255 304 316 324 340 293 279 273 169 201 271 291 300 274 252 236 254 276 276 268 262 260 258 275 287 234 324 337 6 320 249 233 252 229 237 200 227 240 245 237 235
253 215 204 204 214 226 239 275 305 312 326 283 239 272 11 274 245 259 284 311 311 288 218 253 253 246 256 253 253 258 252 280 183 136 243 246 249 252 258 275 267 279 200 221 232 235 253
250 217 203 205 205 221 222 246 293 315 316 257 298 332 358 290 277 268 253 261 294 276 277 267 232 267 242 236 250 255 256 269 271 183 238 227 259 275 258 253 247 258 252 263 247 216 233
249 221 205 202 202 214 212 229 279 317 322 293 1 287 266 293 250 238 207 261 290 320 285 247 274 271 262 275 258 248 263 287 332 306 265 291 298 226 247 252 214 238 243 228 249 235 260
251 228 206 197 203 207 204 212 236 307 330 308 315 300 275 269 271 279 70 299 284 301 301 307 293 274 359 318 282 275 261 245 251 233 281 279 279 294 275 108 295 85 13 335 38 40 39
259 233 207 195 196 203 200 205 222 249 296 291 316 290 297 285 291 302 298 293 297 280 235 244 62 354 300 259 227 213 222 235 232 236 222 251 290 273 267 266 239 148 102 45 328 82 43
256 226 204 192 193 199 199 204 210 230 271 279 282 310 279 293 243 354 303 281 285 317 269 257 145 319 307 271 214 199 207 203 210 199 226 232 235 270 258 269 273 83 38 345 111 143 39
245 223 201 190 190 195 197 204 209 221 241 284 300 220 274 277 274 322 331 340 326 316 308 339 346 305 316 300 314 258 103 329 227 209 174 202 233 233 235 254 256 41 23 244 234 70 30
241 216 197 186 187 192 196 202 205 217 241 272 314 234 282 290 294 290 291 293 305 309 355 269 276 211 298 319 312 198 152 238 290 71 323 320 311 246 234 267 238 3 293 355 44 60 17
241 210 194 186 186 190 193 199 202 205 225 265 270 143 255 259 293 312 287 276 276 279 298 288 3 67 43 303 323 345 307 260 320 288 72 254 290 340 10 18 60 66 79 81 38 46 28